Time,TemperatureF,DewpointF,PressureIn,WindDirection,WindDirectionDegrees,WindSpeedMPH,WindSpeedGustMPH,Humidity,HourlyPrecipIn,Conditions,Clouds,dailyrainin,SoftwareType,DateUTC
2013-11-13 00:01:00,69.5,54.1,30.09,NNW,340,1.0,3.0,58,0.00,,,0.00,Wunderground v.1.13,2013-11-13 05:01:00,
2013-11-13 00:02:00,69.5,54.1,30.09,North,360,2.0,6.0,58,0.00,,,0.00,Wunderground v.1.13,2013-11-13 05:02:00,
2013-11-13 00:03:00,69.5,54.1,30.09,NNE,13,2.0,6.0,58,0.00,,,0.00,Wunderground v.1.13,2013-11-13 05:03:00,
2013-11-13 00:05:00,69.4,54.0,30.09,NNE,13,1.0,6.0,58,0.00,,,0.00,Wunderground v.1.13,2013-11-13 05:05:00,
2013-11-13 00:10:00,69.4,54.0,30.09,NNE,13,4.0,9.0,58,0.00,,,0.00,Wunderground v.1.13,2013-11-13 05:10:00,
2013-11-13 00:11:00,69.4,54.0,30.09,North,9,6.0,6.0,58,0.00,,,0.00,Wunderground v.1.13,2013-11-13 05:11:00,
2013-11-13 00:12:00,69.4,54.0,30.09,NNW,348,2.0,6.0,58,0.00,,,0.00,Wunderground v.1.13,2013-11-13 05:12:00,
2013-11-13 00:17:00,69.3,53.9,30.09,NNW,343,4.0,4.0,58,0.00,,,0.00,Wunderground v.1.13,2013-11-13 05:17:00,
2013-11-13 00:22:00,69.3,53.9,30.09,NNE,15,2.0,3.0,58,0.00,,,0.00,Wunderground v.1.13,2013-11-13 05:22:00,
2013-11-13 00:27:00,69.2,53.8,30.09,NNE,32,3.0,3.0,58,0.00,,,0.00,Wunderground v.1.13,2013-11-13 05:27:00,
2013-11-13 00:33:00,69.1,53.7,30.09,North,5,2.0,3.0,58,0.00,,,0.00,Wunderground v.1.13,2013-11-13 05:33:00,
2013-11-13 00:38:00,69.0,53.6,30.09,North,360,5.0,5.0,58,0.00,,,0.00,Wunderground v.1.13,2013-11-13 05:38:00,
2013-11-13 00:43:00,69.0,53.6,30.09,NE,41,2.0,5.0,58,0.00,,,0.00,Wunderground v.1.13,2013-11-13 05:43:00,
2013-11-13 00:48:00,68.9,53.5,30.09,NNE,25,8.0,8.0,58,0.00,,,0.00,Wunderground v.1.13,2013-11-13 05:48:00,
2013-11-13 00:53:00,68.8,53.4,30.09,NNE,24,2.0,5.0,58,0.00,,,0.00,Wunderground v.1.13,2013-11-13 05:53:00,
2013-11-13 00:59:00,68.8,53.4,30.09,NNE,21,4.0,6.0,58,0.00,,,0.00,Wunderground v.1.13,2013-11-13 05:59:00,
2013-11-13 01:04:00,68.7,53.3,30.09,North,5,3.0,6.0,58,0.00,,,0.00,Wunderground v.1.13,2013-11-13 06:04:00,
2013-11-13 01:09:00,68.6,53.2,30.09,NNW,341,3.0,6.0,58,0.00,,,0.00,Wunderground v.1.13,2013-11-13 06:09:00,
2013-11-13 01:15:00,68.5,53.6,30.09,NNE,32,6.0,6.0,59,0.00,,,0.00,Wunderground v.1.13,2013-11-13 06:15:00,
2013-11-13 01:21:00,68.3,53.4,30.08,NNE,30,6.0,6.0,59,0.00,,,0.00,Wunderground v.1.13,2013-11-13 06:21:00,
2013-11-13 01:26:00,68.1,53.7,30.08,NNE,30,2.0,3.0,60,0.00,,,0.00,Wunderground v.1.13,2013-11-13 06:26:00,
2013-11-13 01:31:00,68.1,53.7,30.08,North,350,2.0,3.0,60,0.00,,,0.00,Wunderground v.1.13,2013-11-13 06:31:00,
2013-11-13 01:36:00,68.0,53.6,30.08,North,10,6.0,6.0,60,0.00,,,0.00,Wunderground v.1.13,2013-11-13 06:36:00,
2013-11-13 01:41:00,68.0,53.6,30.08,North,360,1.0,3.0,60,0.00,,,0.00,Wunderground v.1.13,2013-11-13 06:41:00,
2013-11-13 01:47:00,67.9,53.0,30.08,North,360,2.0,6.0,59,0.00,,,0.00,Wunderground v.1.13,2013-11-13 06:47:00,
2013-11-13 01:52:00,68.0,52.2,30.08,NNE,30,6.0,7.0,57,0.00,,,0.00,Wunderground v.1.13,2013-11-13 06:52:00,
2013-11-13 01:57:00,68.1,51.8,30.08,North,360,5.0,5.0,56,0.00,,,0.00,Wunderground v.1.13,2013-11-13 06:57:00,
2013-11-13 02:02:00,68.1,51.8,30.08,NNE,24,3.0,11.0,56,0.00,,,0.00,Wunderground v.1.13,2013-11-13 07:02:00,
2013-11-13 02:07:00,68.0,51.2,30.07,North,9,4.0,9.0,55,0.00,,,0.00,Wunderground v.1.13,2013-11-13 07:07:00,
2013-11-13 02:13:00,67.8,51.5,30.07,North,360,1.0,4.0,56,0.00,,,0.00,Wunderground v.1.13,2013-11-13 07:13:00,
2013-11-13 02:18:00,67.6,51.8,30.07,NNE,25,5.0,11.0,57,0.00,,,0.00,Wunderground v.1.13,2013-11-13 07:18:00,
2013-11-13 02:23:00,67.4,51.6,30.07,NNE,15,0.0,8.0,57,0.00,,,0.00,Wunderground v.1.13,2013-11-13 07:23:00,
2013-11-13 02:28:00,67.3,51.5,30.08,North,360,0.0,5.0,57,0.00,,,0.00,Wunderground v.1.13,2013-11-13 07:28:00,
2013-11-13 02:33:00,67.1,51.4,30.07,North,360,2.0,11.0,57,0.00,,,0.00,Wunderground v.1.13,2013-11-13 07:33:00,
2013-11-13 02:38:00,67.0,51.3,30.07,North,355,7.0,12.0,57,0.00,,,0.00,Wunderground v.1.13,2013-11-13 07:38:00,
2013-11-13 02:43:00,67.0,51.3,30.07,NW,322,9.0,10.0,57,0.00,,,0.00,Wunderground v.1.13,2013-11-13 07:43:00,
2013-11-13 02:48:00,66.9,51.2,30.08,NNE,18,0.0,9.0,57,0.00,,,0.00,Wunderground v.1.13,2013-11-13 07:48:00,
2013-11-13 02:53:00,66.9,51.2,30.07,NNE,28,9.0,11.0,57,0.00,,,0.00,Wunderground v.1.13,2013-11-13 07:53:00,
2013-11-13 02:58:00,66.8,50.6,30.07,North,5,5.0,14.0,56,0.00,,,0.00,Wunderground v.1.13,2013-11-13 07:58:00,
2013-11-13 03:03:00,66.7,51.0,30.08,North,360,4.0,9.0,57,0.00,,,0.00,Wunderground v.1.13,2013-11-13 08:03:00,
2013-11-13 03:08:00,66.5,51.3,30.08,NNE,29,2.0,11.0,58,0.00,,,0.00,Wunderground v.1.13,2013-11-13 08:08:00,
2013-11-13 03:13:00,66.2,51.0,30.08,NNE,13,4.0,18.0,58,0.00,,,0.00,Wunderground v.1.13,2013-11-13 08:13:00,
2013-11-13 03:19:00,65.9,51.2,30.08,NNE,13,7.0,14.0,59,0.00,,,0.00,Wunderground v.1.13,2013-11-13 08:19:00,
2013-11-13 03:24:00,65.7,51.0,30.08,North,355,5.0,16.0,59,0.00,,,0.00,Wunderground v.1.13,2013-11-13 08:24:00,
2013-11-13 03:29:00,65.4,50.7,30.08,North,355,9.0,16.0,59,0.00,,,0.00,Wunderground v.1.13,2013-11-13 08:29:00,
2013-11-13 03:34:00,65.2,51.0,30.09,NE,40,5.0,13.0,60,0.00,,,0.00,Wunderground v.1.13,2013-11-13 08:34:00,
2013-11-13 03:39:00,65.0,50.8,30.09,NNE,30,14.0,17.0,60,0.00,,,0.00,Wunderground v.1.13,2013-11-13 08:39:00,
2013-11-13 03:44:00,64.8,50.6,30.09,NNE,30,0.0,10.0,60,0.00,,,0.00,Wunderground v.1.13,2013-11-13 08:44:00,
2013-11-13 03:49:00,64.6,50.8,30.09,North,355,13.0,13.0,61,0.00,,,0.00,Wunderground v.1.13,2013-11-13 08:49:00,
2013-11-13 03:54:00,64.3,50.6,30.09,North,355,4.0,13.0,61,0.00,,,0.00,Wunderground v.1.13,2013-11-13 08:54:00,
2013-11-13 03:59:00,64.1,50.4,30.09,North,5,7.0,17.0,61,0.00,,,0.00,Wunderground v.1.13,2013-11-13 08:59:00,
2013-11-13 04:04:00,64.0,50.3,30.10,NNE,31,12.0,19.0,61,0.00,,,0.00,Wunderground v.1.13,2013-11-13 09:04:00,
2013-11-13 04:09:00,63.9,50.2,30.10,NNE,28,4.0,18.0,61,0.00,,,0.00,Wunderground v.1.13,2013-11-13 09:09:00,
2013-11-13 04:14:00,63.8,50.5,30.10,NNW,338,10.0,18.0,62,0.00,,,0.00,Wunderground v.1.13,2013-11-13 09:14:00,
2013-11-13 04:20:00,63.6,50.3,30.10,NNE,24,0.0,17.0,62,0.00,,,0.00,Wunderground v.1.13,2013-11-13 09:20:00,
2013-11-13 04:25:00,63.4,50.6,30.10,NE,38,6.0,17.0,63,0.00,,,0.00,Wunderground v.1.13,2013-11-13 09:25:00,
2013-11-13 04:30:00,63.3,50.1,30.11,NE,42,4.0,16.0,62,0.00,,,0.00,Wunderground v.1.13,2013-11-13 09:30:00,
2013-11-13 04:35:00,63.2,50.4,30.11,North,10,5.0,11.0,63,0.00,,,0.00,Wunderground v.1.13,2013-11-13 09:35:00,
2013-11-13 04:40:00,63.0,50.2,30.11,NNE,32,7.0,19.0,63,0.00,,,0.00,Wunderground v.1.13,2013-11-13 09:40:00,
2013-11-13 04:45:00,62.5,48.9,30.11,ENE,58,14.0,19.0,61,0.00,,,0.00,Wunderground v.1.13,2013-11-13 09:45:00,
2013-11-13 04:50:00,62.2,49.0,30.11,NE,56,16.0,19.0,62,0.00,,,0.00,Wunderground v.1.13,2013-11-13 09:50:00,
2013-11-13 04:55:00,62.0,48.8,30.12,NNE,21,6.0,20.0,62,0.00,,,0.00,Wunderground v.1.13,2013-11-13 09:55:00,
2013-11-13 05:00:00,61.8,48.6,30.12,NNE,33,10.0,19.0,62,0.00,,,0.00,Wunderground v.1.13,2013-11-13 10:00:00,
2013-11-13 05:05:00,61.5,48.4,30.12,NNE,30,13.0,19.0,62,0.00,,,0.00,Wunderground v.1.13,2013-11-13 10:05:00,
2013-11-13 05:10:00,61.4,48.7,30.13,North,5,17.0,22.0,63,0.00,,,0.00,Wunderground v.1.13,2013-11-13 10:10:00,
2013-11-13 05:15:00,61.3,48.6,30.13,North,5,5.0,24.0,63,0.00,,,0.00,Wunderground v.1.13,2013-11-13 10:15:00,
2013-11-13 05:20:00,61.2,48.5,30.13,North,360,7.0,17.0,63,0.00,,,0.00,Wunderground v.1.13,2013-11-13 10:20:00,
2013-11-13 05:25:00,61.0,48.3,30.14,NE,46,17.0,23.0,63,0.00,,,0.00,Wunderground v.1.13,2013-11-13 10:25:00,
2013-11-13 05:30:00,60.9,48.6,30.14,North,9,18.0,18.0,64,0.00,,,0.00,Wunderground v.1.13,2013-11-13 10:30:00,
2013-11-13 05:35:00,60.9,48.6,30.13,NE,46,4.0,21.0,64,0.00,,,0.00,Wunderground v.1.13,2013-11-13 10:35:00,
2013-11-13 05:40:00,60.7,48.0,30.14,NNE,26,9.0,25.0,63,0.00,,,0.00,Wunderground v.1.13,2013-11-13 10:40:00,
2013-11-13 05:45:00,60.4,47.7,30.14,North,360,13.0,25.0,63,0.00,,,0.00,Wunderground v.1.13,2013-11-13 10:45:00,
2013-11-13 05:50:00,60.2,48.0,30.14,North,9,13.0,25.0,64,0.00,,,0.00,Wunderground v.1.13,2013-11-13 10:50:00,
2013-11-13 05:55:00,60.1,47.9,30.15,NE,40,11.0,18.0,64,0.00,,,0.00,Wunderground v.1.13,2013-11-13 10:55:00,
2013-11-13 06:00:00,60.1,48.3,30.16,NE,38,5.0,19.0,65,0.00,,,0.00,Wunderground v.1.13,2013-11-13 11:00:00,
2013-11-13 06:05:00,59.8,47.6,30.16,NNE,29,5.0,20.0,64,0.00,,,0.00,Wunderground v.1.13,2013-11-13 11:05:00,
2013-11-13 06:10:00,59.6,47.8,30.16,NNE,25,13.0,17.0,65,0.00,,,0.00,Wunderground v.1.13,2013-11-13 11:10:00,
2013-11-13 06:15:00,59.5,47.7,30.16,North,5,9.0,18.0,65,0.00,,,0.00,Wunderground v.1.13,2013-11-13 11:15:00,
2013-11-13 06:20:00,59.3,47.5,30.17,NNE,21,16.0,18.0,65,0.00,,,0.00,Wunderground v.1.13,2013-11-13 11:20:00,
2013-11-13 06:25:00,59.2,47.4,30.16,NE,56,19.0,20.0,65,0.00,,,0.00,Wunderground v.1.13,2013-11-13 11:25:00,
2013-11-13 06:30:00,59.2,47.4,30.17,NNE,19,7.0,21.0,65,0.00,,,0.00,Wunderground v.1.13,2013-11-13 11:30:00,
2013-11-13 06:35:00,59.0,47.7,30.16,North,5,7.0,15.0,66,0.00,,,0.00,Wunderground v.1.13,2013-11-13 11:35:00,
2013-11-13 06:40:00,59.0,47.7,30.16,NNE,26,15.0,23.0,66,0.00,,,0.00,Wunderground v.1.13,2013-11-13 11:40:00,
2013-11-13 06:45:00,59.0,47.7,30.17,NE,49,10.0,19.0,66,0.00,,,0.00,Wunderground v.1.13,2013-11-13 11:45:00,
2013-11-13 06:50:00,59.0,48.1,30.18,NNE,28,13.0,23.0,67,0.00,,,0.00,Wunderground v.1.13,2013-11-13 11:50:00,
2013-11-13 06:55:00,59.0,48.1,30.18,NNE,28,11.0,21.0,67,0.00,,,0.00,Wunderground v.1.13,2013-11-13 11:55:00,
2013-11-13 07:00:00,59.0,48.1,30.18,NNE,26,4.0,18.0,67,0.00,,,0.00,Wunderground v.1.13,2013-11-13 12:00:00,
2013-11-13 07:05:00,59.0,48.4,30.18,North,5,5.0,21.0,68,0.00,,,0.00,Wunderground v.1.13,2013-11-13 12:05:00,
2013-11-13 07:10:00,59.0,48.4,30.19,North,360,4.0,16.0,68,0.00,,,0.00,Wunderground v.1.13,2013-11-13 12:10:00,
2013-11-13 07:15:00,59.0,48.4,30.19,NNE,30,12.0,18.0,68,0.00,,,0.00,Wunderground v.1.13,2013-11-13 12:15:00,
2013-11-13 07:21:00,59.0,48.8,30.20,North,5,9.0,9.0,69,0.00,,,0.00,Wunderground v.1.13,2013-11-13 12:21:00,
2013-11-13 07:26:00,59.0,48.8,30.19,North,5,4.0,11.0,69,0.00,,,0.00,Wunderground v.1.13,2013-11-13 12:26:00,
2013-11-13 07:31:00,58.9,48.7,30.19,NNE,17,11.0,12.0,69,0.00,,,0.00,Wunderground v.1.13,2013-11-13 12:31:00,
2013-11-13 07:36:00,59.0,48.8,30.20,NE,36,14.0,24.0,69,0.00,,,0.00,Wunderground v.1.13,2013-11-13 12:36:00,
2013-11-13 07:41:00,58.9,49.1,30.19,NE,46,8.0,17.0,70,0.00,,,0.00,Wunderground v.1.13,2013-11-13 12:41:00,
2013-11-13 07:46:00,59.0,49.6,30.19,NNE,21,18.0,18.0,71,0.00,,,0.00,Wunderground v.1.13,2013-11-13 12:46:00,
2013-11-13 07:51:00,59.0,49.2,30.20,North,9,8.0,14.0,70,0.00,,,0.00,Wunderground v.1.13,2013-11-13 12:51:00,
2013-11-13 07:56:00,59.0,49.2,30.21,NE,39,8.0,10.0,70,0.00,,,0.00,Wunderground v.1.13,2013-11-13 12:56:00,
2013-11-13 08:01:00,59.0,49.2,30.21,NE,38,5.0,16.0,70,0.00,,,0.00,Wunderground v.1.13,2013-11-13 13:01:00,
2013-11-13 08:06:00,59.0,49.2,30.21,NE,53,1.0,10.0,70,0.00,,,0.00,Wunderground v.1.13,2013-11-13 13:06:00,
2013-11-13 08:11:00,59.0,49.6,30.21,NNE,13,0.0,13.0,71,0.00,,,0.00,Wunderground v.1.13,2013-11-13 13:11:00,
2013-11-13 08:16:00,59.0,49.6,30.21,NNE,27,10.0,10.0,71,0.00,,,0.00,Wunderground v.1.13,2013-11-13 13:16:00,
2013-11-13 08:21:00,59.0,49.6,30.21,North,360,17.0,19.0,71,0.00,,,0.00,Wunderground v.1.13,2013-11-13 13:21:00,
2013-11-13 08:26:00,59.0,49.6,30.21,NNE,19,12.0,15.0,71,0.00,,,0.00,Wunderground v.1.13,2013-11-13 13:26:00,
2013-11-13 08:31:00,59.0,49.6,30.21,NE,37,1.0,8.0,71,0.00,,,0.00,Wunderground v.1.13,2013-11-13 13:31:00,
2013-11-13 08:36:00,59.0,49.6,30.22,North,360,10.0,12.0,71,0.00,,,0.00,Wunderground v.1.13,2013-11-13 13:36:00,
2013-11-13 08:41:00,59.0,49.6,30.22,NNE,28,6.0,12.0,71,0.00,,,0.00,Wunderground v.1.13,2013-11-13 13:41:00,
2013-11-13 08:47:00,59.0,49.6,30.22,NE,53,9.0,17.0,71,0.00,,,0.00,Wunderground v.1.13,2013-11-13 13:47:00,
2013-11-13 08:52:00,59.0,49.6,30.22,NNE,29,5.0,11.0,71,0.00,,,0.00,Wunderground v.1.13,2013-11-13 13:52:00,
2013-11-13 08:57:00,59.0,49.6,30.22,NE,55,13.0,13.0,71,0.00,,,0.00,Wunderground v.1.13,2013-11-13 13:57:00,
2013-11-13 09:02:00,59.0,50.0,30.22,NE,37,6.0,8.0,72,0.00,,,0.00,Wunderground v.1.13,2013-11-13 14:02:00,
2013-11-13 09:07:00,59.5,50.1,30.22,ENE,72,4.0,11.0,71,0.00,,,0.00,Wunderground v.1.13,2013-11-13 14:07:00,
2013-11-13 09:12:00,59.8,50.0,30.22,NE,45,7.0,19.0,70,0.00,,,0.00,Wunderground v.1.13,2013-11-13 14:12:00,
2013-11-13 09:17:00,60.2,50.4,30.22,NNE,24,13.0,19.0,70,0.00,,,0.00,Wunderground v.1.13,2013-11-13 14:17:00,
2013-11-13 09:22:00,60.4,50.2,30.23,NE,50,13.0,18.0,69,0.00,,,0.00,Wunderground v.1.13,2013-11-13 14:22:00,
2013-11-13 09:27:00,60.3,50.5,30.23,NNE,25,16.0,16.0,70,0.00,,,0.00,Wunderground v.1.13,2013-11-13 14:27:00,
2013-11-13 09:32:00,59.9,49.7,30.22,NNE,33,8.0,16.0,69,0.00,,,0.00,Wunderground v.1.13,2013-11-13 14:32:00,
2013-11-13 09:37:00,59.7,49.9,30.23,NE,34,4.0,22.0,70,0.00,,,0.00,Wunderground v.1.13,2013-11-13 14:37:00,
2013-11-13 09:42:00,60.3,50.5,30.23,North,355,3.0,15.0,70,0.00,,,0.00,Wunderground v.1.13,2013-11-13 14:42:00,
2013-11-13 09:47:00,60.9,50.7,30.23,NNE,18,1.0,15.0,69,0.00,,,0.00,Wunderground v.1.13,2013-11-13 14:47:00,
2013-11-13 09:53:00,61.4,50.7,30.23,ENE,57,1.0,13.0,68,0.00,,,0.00,Wunderground v.1.13,2013-11-13 14:53:00,
2013-11-13 09:58:00,61.7,50.6,30.23,North,360,11.0,19.0,67,0.00,,,0.00,Wunderground v.1.13,2013-11-13 14:58:00,
2013-11-13 10:03:00,61.5,50.4,30.23,NNE,32,11.0,20.0,67,0.00,,,0.00,Wunderground v.1.13,2013-11-13 15:03:00,
2013-11-13 10:08:00,61.6,50.5,30.23,NNE,26,5.0,17.0,67,0.00,,,0.00,Wunderground v.1.13,2013-11-13 15:08:00,
2013-11-13 10:13:00,61.5,50.8,30.23,NE,53,1.0,19.0,68,0.00,,,0.00,Wunderground v.1.13,2013-11-13 15:13:00,
2013-11-13 10:18:00,61.5,50.8,30.24,NNW,333,7.0,16.0,68,0.00,,,0.00,Wunderground v.1.13,2013-11-13 15:18:00,
2013-11-13 10:23:00,61.6,50.9,30.23,NE,46,7.0,17.0,68,0.00,,,0.00,Wunderground v.1.13,2013-11-13 15:23:00,
2013-11-13 10:28:00,62.1,51.4,30.23,NE,51,6.0,11.0,68,0.00,,,0.00,Wunderground v.1.13,2013-11-13 15:28:00,
2013-11-13 10:33:00,62.1,50.6,30.23,North,9,17.0,20.0,66,0.00,,,0.00,Wunderground v.1.13,2013-11-13 15:33:00,
2013-11-13 10:38:00,61.4,50.3,30.23,NE,34,14.0,17.0,67,0.00,,,0.00,Wunderground v.1.13,2013-11-13 15:38:00,
2013-11-13 10:43:00,61.6,50.9,30.24,North,5,9.0,11.0,68,0.00,,,0.00,Wunderground v.1.13,2013-11-13 15:43:00,
2013-11-13 10:49:00,61.3,50.2,30.23,NE,53,8.0,21.0,67,0.00,,,0.00,Wunderground v.1.13,2013-11-13 15:49:00,
2013-11-13 10:54:00,61.1,50.5,30.23,NNE,13,11.0,16.0,68,0.00,,,0.00,Wunderground v.1.13,2013-11-13 15:54:00,
2013-11-13 10:59:00,61.4,50.3,30.23,NNE,20,6.0,16.0,67,0.00,,,0.00,Wunderground v.1.13,2013-11-13 15:59:00,
2013-11-13 11:04:00,61.2,50.2,30.24,NE,49,10.0,19.0,67,0.00,,,0.00,Wunderground v.1.13,2013-11-13 16:04:00,
2013-11-13 11:09:00,60.9,50.3,30.24,North,5,10.0,17.0,68,0.00,,,0.00,Wunderground v.1.13,2013-11-13 16:09:00,
2013-11-13 11:14:00,61.2,50.2,30.23,NNE,17,9.0,17.0,67,0.00,,,0.00,Wunderground v.1.13,2013-11-13 16:14:00,
2013-11-13 11:19:00,61.6,50.5,30.23,NNE,26,4.0,18.0,67,0.00,,,0.00,Wunderground v.1.13,2013-11-13 16:19:00,
2013-11-13 11:24:00,62.0,50.5,30.23,NE,42,14.0,18.0,66,0.00,,,0.00,Wunderground v.1.13,2013-11-13 16:24:00,
2013-11-13 11:29:00,61.8,50.3,30.23,NNE,28,6.0,17.0,66,0.00,,,0.00,Wunderground v.1.13,2013-11-13 16:29:00,
2013-11-13 11:34:00,61.6,50.1,30.23,NNE,24,5.0,19.0,66,0.00,,,0.00,Wunderground v.1.13,2013-11-13 16:34:00,
2013-11-13 11:39:00,61.5,50.0,30.23,NE,48,5.0,19.0,66,0.00,,,0.00,Wunderground v.1.13,2013-11-13 16:39:00,
2013-11-13 11:44:00,61.9,50.4,30.23,NE,50,13.0,17.0,66,0.00,,,0.00,Wunderground v.1.13,2013-11-13 16:44:00,
2013-11-13 11:49:00,62.5,50.6,30.23,NNE,25,10.0,11.0,65,0.00,,,0.00,Wunderground v.1.13,2013-11-13 16:49:00,
2013-11-13 11:54:00,62.9,51.0,30.23,ENE,69,4.0,11.0,65,0.00,,,0.00,Wunderground v.1.13,2013-11-13 16:54:00,
2013-11-13 11:59:00,62.2,50.3,30.22,NE,45,1.0,19.0,65,0.00,,,0.00,Wunderground v.1.13,2013-11-13 16:59:00,
2013-11-13 12:04:00,62.2,50.7,30.22,NNE,22,0.0,18.0,66,0.00,,,0.00,Wunderground v.1.13,2013-11-13 17:04:00,
2013-11-13 12:09:00,62.9,51.0,30.22,NNE,30,9.0,13.0,65,0.00,,,0.00,Wunderground v.1.13,2013-11-13 17:09:00,
2013-11-13 12:14:00,63.2,50.8,30.22,NE,40,10.0,16.0,64,0.00,,,0.00,Wunderground v.1.13,2013-11-13 17:14:00,
2013-11-13 12:19:00,63.0,50.2,30.22,ENE,57,6.0,14.0,63,0.00,,,0.00,Wunderground v.1.13,2013-11-13 17:19:00,
2013-11-13 12:24:00,62.9,50.5,30.22,NE,44,13.0,17.0,64,0.00,,,0.00,Wunderground v.1.13,2013-11-13 17:24:00,
2013-11-13 12:30:00,62.6,50.2,30.21,North,11,11.0,18.0,64,0.00,,,0.00,Wunderground v.1.13,2013-11-13 17:30:00,
2013-11-13 12:35:00,62.6,50.2,30.21,North,351,16.0,16.0,64,0.00,,,0.00,Wunderground v.1.13,2013-11-13 17:35:00,
2013-11-13 12:40:00,62.6,50.2,30.21,NNE,26,0.0,14.0,64,0.00,,,0.00,Wunderground v.1.13,2013-11-13 17:40:00,
2013-11-13 12:45:00,63.0,50.6,30.21,NNE,33,0.0,16.0,64,0.00,,,0.00,Wunderground v.1.13,2013-11-13 17:45:00,
2013-11-13 12:50:00,63.4,50.6,30.21,ENE,59,0.0,15.0,63,0.00,,,0.00,Wunderground v.1.13,2013-11-13 17:50:00,
2013-11-13 12:55:00,63.6,50.8,30.21,NNE,13,1.0,11.0,63,0.00,,,0.00,Wunderground v.1.13,2013-11-13 17:55:00,
2013-11-13 13:00:00,63.8,50.5,30.20,NE,40,6.0,17.0,62,0.00,,,0.00,Wunderground v.1.13,2013-11-13 18:00:00,
2013-11-13 13:05:00,63.3,50.1,30.21,NNE,33,12.0,19.0,62,0.00,,,0.00,Wunderground v.1.13,2013-11-13 18:05:00,
2013-11-13 13:10:00,63.0,50.2,30.20,NE,36,11.0,21.0,63,0.00,,,0.00,Wunderground v.1.13,2013-11-13 18:10:00,
2013-11-13 13:15:00,62.9,50.1,30.20,North,9,14.0,16.0,63,0.00,,,0.00,Wunderground v.1.13,2013-11-13 18:15:00,
2013-11-13 13:20:00,63.0,50.6,30.20,North,360,12.0,17.0,64,0.00,,,0.00,Wunderground v.1.13,2013-11-13 18:20:00,
2013-11-13 13:25:00,63.2,50.4,30.20,North,11,6.0,17.0,63,0.00,,,0.00,Wunderground v.1.13,2013-11-13 18:25:00,
2013-11-13 13:30:00,63.3,50.5,30.20,North,9,19.0,19.0,63,0.00,,,0.00,Wunderground v.1.13,2013-11-13 18:30:00,
2013-11-13 13:35:00,63.1,50.7,30.20,NNE,25,10.0,20.0,64,0.00,,,0.00,Wunderground v.1.13,2013-11-13 18:35:00,
2013-11-13 13:40:00,63.2,50.4,30.20,NNE,29,10.0,22.0,63,0.00,,,0.00,Wunderground v.1.13,2013-11-13 18:40:00,
2013-11-13 13:45:00,63.3,50.1,30.20,NE,47,10.0,17.0,62,0.00,,,0.00,Wunderground v.1.13,2013-11-13 18:45:00,
2013-11-13 13:50:00,63.3,49.6,30.20,ENE,57,1.0,18.0,61,0.00,,,0.00,Wunderground v.1.13,2013-11-13 18:50:00,
2013-11-13 13:55:00,63.3,49.6,30.19,NNE,22,12.0,19.0,61,0.00,,,0.00,Wunderground v.1.13,2013-11-13 18:55:00,
2013-11-13 14:00:00,63.6,50.3,30.19,ENE,59,2.0,11.0,62,0.00,,,0.00,Wunderground v.1.13,2013-11-13 19:00:00,
2013-11-13 14:05:00,63.6,50.3,30.19,NNE,23,11.0,15.0,62,0.00,,,0.00,Wunderground v.1.13,2013-11-13 19:05:00,
2013-11-13 14:10:00,63.4,49.7,30.19,North,10,10.0,15.0,61,0.00,,,0.00,Wunderground v.1.13,2013-11-13 19:10:00,
2013-11-13 14:15:00,63.2,49.5,30.19,NE,48,10.0,19.0,61,0.00,,,0.00,Wunderground v.1.13,2013-11-13 19:15:00,
2013-11-13 14:20:00,63.2,50.0,30.19,NE,40,0.0,12.0,62,0.00,,,0.00,Wunderground v.1.13,2013-11-13 19:20:00,
2013-11-13 14:25:00,63.1,49.9,30.19,NNE,26,0.0,16.0,62,0.00,,,0.00,Wunderground v.1.13,2013-11-13 19:25:00,
2013-11-13 14:30:00,63.4,50.1,30.19,NNE,19,1.0,11.0,62,0.00,,,0.00,Wunderground v.1.13,2013-11-13 19:30:00,
2013-11-13 14:35:00,63.7,50.4,30.20,ENE,64,3.0,18.0,62,0.00,,,0.00,Wunderground v.1.13,2013-11-13 19:35:00,
2013-11-13 14:40:00,63.7,50.0,30.19,NE,40,0.0,15.0,61,0.00,,,0.00,Wunderground v.1.13,2013-11-13 19:40:00,
2013-11-13 14:45:00,63.6,50.3,30.19,NE,41,7.0,13.0,62,0.00,,,0.00,Wunderground v.1.13,2013-11-13 19:45:00,
2013-11-13 14:50:00,63.6,49.9,30.19,NNE,32,2.0,16.0,61,0.00,,,0.00,Wunderground v.1.13,2013-11-13 19:50:00,
2013-11-13 14:55:00,63.8,50.5,30.19,North,360,7.0,14.0,62,0.00,,,0.00,Wunderground v.1.13,2013-11-13 19:55:00,
2013-11-13 15:00:00,64.2,50.9,30.19,ENE,71,3.0,3.0,62,0.00,,,0.00,Wunderground v.1.13,2013-11-13 20:00:00,
2013-11-13 15:05:00,64.6,50.4,30.19,ENE,64,3.0,4.0,60,0.00,,,0.00,Wunderground v.1.13,2013-11-13 20:05:00,
2013-11-13 15:10:00,65.0,51.2,30.19,East,98,5.0,5.0,61,0.00,,,0.00,Wunderground v.1.13,2013-11-13 20:10:00,
2013-11-13 15:15:00,65.4,51.1,30.19,ENE,70,0.0,4.0,60,0.00,,,0.00,Wunderground v.1.13,2013-11-13 20:15:00,
2013-11-13 15:20:00,65.6,51.3,30.19,NNE,26,3.0,3.0,60,0.00,,,0.00,Wunderground v.1.13,2013-11-13 20:20:00,
2013-11-13 15:25:00,65.8,51.1,30.19,NE,40,0.0,2.0,59,0.00,,,0.00,Wunderground v.1.13,2013-11-13 20:25:00,
2013-11-13 15:31:00,65.4,50.7,30.19,NE,37,2.0,5.0,59,0.00,,,0.00,Wunderground v.1.13,2013-11-13 20:31:00,
2013-11-13 15:36:00,65.0,50.3,30.19,NNE,28,4.0,7.0,59,0.00,,,0.00,Wunderground v.1.13,2013-11-13 20:36:00,
2013-11-13 15:41:00,65.0,50.8,30.20,NE,44,0.0,6.0,60,0.00,,,0.00,Wunderground v.1.13,2013-11-13 20:41:00,
2013-11-13 15:46:00,65.2,50.5,30.20,NE,52,7.0,7.0,59,0.00,,,0.00,Wunderground v.1.13,2013-11-13 20:46:00,
2013-11-13 15:51:00,65.1,50.4,30.20,NE,55,7.0,7.0,59,0.00,,,0.00,Wunderground v.1.13,2013-11-13 20:51:00,
2013-11-13 15:56:00,65.1,50.9,30.20,NNE,32,1.0,4.0,60,0.00,,,0.00,Wunderground v.1.13,2013-11-13 20:56:00,
2013-11-13 16:01:00,65.2,51.0,30.21,NNE,32,4.0,13.0,60,0.00,,,0.00,Wunderground v.1.13,2013-11-13 21:01:00,
2013-11-13 16:06:00,64.9,50.7,30.21,NE,35,17.0,17.0,60,0.00,,,0.00,Wunderground v.1.13,2013-11-13 21:06:00,
2013-11-13 16:11:00,64.5,50.7,30.21,NNW,347,0.0,6.0,61,0.00,,,0.00,Wunderground v.1.13,2013-11-13 21:11:00,
2013-11-13 16:16:00,64.3,50.6,30.21,NNE,33,8.0,12.0,61,0.00,,,0.00,Wunderground v.1.13,2013-11-13 21:16:00,
2013-11-13 16:21:00,63.6,49.9,30.22,NE,46,1.0,15.0,61,0.00,,,0.00,Wunderground v.1.13,2013-11-13 21:21:00,
2013-11-13 16:26:00,63.5,50.2,30.22,NE,51,3.0,19.0,62,0.00,,,0.00,Wunderground v.1.13,2013-11-13 21:26:00,
2013-11-13 16:31:00,62.9,49.7,30.22,North,11,4.0,10.0,62,0.00,,,0.00,Wunderground v.1.13,2013-11-13 21:31:00,
2013-11-13 16:36:00,62.5,49.3,30.22,NE,42,16.0,18.0,62,0.00,,,0.00,Wunderground v.1.13,2013-11-13 21:36:00,
2013-11-13 16:41:00,62.0,48.8,30.23,North,355,16.0,21.0,62,0.00,,,0.00,Wunderground v.1.13,2013-11-13 21:41:00,
2013-11-13 16:46:00,61.7,49.0,30.22,NE,36,14.0,16.0,63,0.00,,,0.00,Wunderground v.1.13,2013-11-13 21:46:00,
2013-11-13 16:51:00,61.5,48.8,30.23,NNE,26,2.0,17.0,63,0.00,,,0.00,Wunderground v.1.13,2013-11-13 21:51:00,
2013-11-13 16:56:00,61.4,48.7,30.23,NE,40,5.0,10.0,63,0.00,,,0.00,Wunderground v.1.13,2013-11-13 21:56:00,
2013-11-13 17:01:00,61.3,48.6,30.23,NNE,14,7.0,12.0,63,0.00,,,0.00,Wunderground v.1.13,2013-11-13 22:01:00,
2013-11-13 17:06:00,61.2,48.5,30.23,NE,36,14.0,22.0,63,0.00,,,0.00,Wunderground v.1.13,2013-11-13 22:06:00,
2013-11-13 17:11:00,61.0,48.3,30.23,NNE,13,5.0,13.0,63,0.00,,,0.00,Wunderground v.1.13,2013-11-13 22:11:00,
2013-11-13 17:17:00,60.8,48.1,30.23,North,360,7.0,15.0,63,0.00,,,0.00,Wunderground v.1.13,2013-11-13 22:17:00,
2013-11-13 17:22:00,60.6,48.4,30.23,ENE,69,0.0,12.0,64,0.00,,,0.00,Wunderground v.1.13,2013-11-13 22:22:00,
2013-11-13 17:27:00,60.5,48.3,30.23,NE,37,20.0,20.0,64,0.00,,,0.00,Wunderground v.1.13,2013-11-13 22:27:00,
2013-11-13 17:32:00,60.3,48.1,30.23,NE,50,13.0,16.0,64,0.00,,,0.00,Wunderground v.1.13,2013-11-13 22:32:00,
2013-11-13 17:37:00,60.2,48.0,30.24,NNE,18,3.0,10.0,64,0.00,,,0.00,Wunderground v.1.13,2013-11-13 22:37:00,
2013-11-13 17:42:00,60.0,47.8,30.24,NNE,24,9.0,9.0,64,0.00,,,0.00,Wunderground v.1.13,2013-11-13 22:42:00,
2013-11-13 17:47:00,59.7,47.9,30.24,NE,37,13.0,19.0,65,0.00,,,0.00,Wunderground v.1.13,2013-11-13 22:47:00,
2013-11-13 17:52:00,59.5,47.3,30.25,NNE,32,13.0,18.0,64,0.00,,,0.00,Wunderground v.1.13,2013-11-13 22:52:00,
2013-11-13 17:57:00,59.4,47.2,30.25,NNE,19,16.0,19.0,64,0.00,,,0.00,Wunderground v.1.13,2013-11-13 22:57:00,
2013-11-13 18:02:00,59.4,47.2,30.25,NE,47,1.0,10.0,64,0.00,,,0.00,Wunderground v.1.13,2013-11-13 23:02:00,
2013-11-13 18:07:00,59.2,47.0,30.25,NE,36,0.0,13.0,64,0.00,,,0.00,Wunderground v.1.13,2013-11-13 23:07:00,
2013-11-13 18:12:00,59.2,46.6,30.25,NNE,29,5.0,10.0,63,0.00,,,0.00,Wunderground v.1.13,2013-11-13 23:12:00,
2013-11-13 18:17:00,59.0,46.4,30.25,NE,46,0.0,8.0,63,0.00,,,0.00,Wunderground v.1.13,2013-11-13 23:17:00,
2013-11-13 18:22:00,59.0,46.0,30.26,ENE,63,2.0,11.0,62,0.00,,,0.00,Wunderground v.1.13,2013-11-13 23:22:00,
2013-11-13 18:27:00,59.0,46.0,30.25,East,84,1.0,12.0,62,0.00,,,0.00,Wunderground v.1.13,2013-11-13 23:27:00,
2013-11-13 18:32:00,59.0,46.0,30.26,NNE,25,0.0,10.0,62,0.00,,,0.00,Wunderground v.1.13,2013-11-13 23:32:00,
2013-11-13 18:37:00,59.0,46.4,30.26,NE,41,9.0,13.0,63,0.00,,,0.00,Wunderground v.1.13,2013-11-13 23:37:00,
2013-11-13 18:42:00,59.0,46.4,30.26,NNE,15,0.0,7.0,63,0.00,,,0.00,Wunderground v.1.13,2013-11-13 23:42:00,
2013-11-13 18:47:00,59.0,46.4,30.26,NE,34,0.0,16.0,63,0.00,,,0.00,Wunderground v.1.13,2013-11-13 23:47:00,
2013-11-13 18:52:00,59.0,46.4,30.26,NNE,28,5.0,7.0,63,0.00,,,0.00,Wunderground v.1.13,2013-11-13 23:52:00,
2013-11-13 18:57:00,58.8,46.6,30.27,NNE,26,0.0,7.0,64,0.00,,,0.00,Wunderground v.1.13,2013-11-13 23:57:00,
2013-11-13 19:02:00,58.7,46.5,30.27,ENE,73,1.0,13.0,64,0.00,,,0.00,Wunderground v.1.13,2013-11-14 00:02:00,
2013-11-13 19:07:00,58.8,46.6,30.27,NNE,19,5.0,12.0,64,0.00,,,0.00,Wunderground v.1.13,2013-11-14 00:07:00,
2013-11-13 19:12:00,58.6,46.5,30.27,NNW,346,4.0,15.0,64,0.00,,,0.00,Wunderground v.1.13,2013-11-14 00:12:00,
2013-11-13 19:17:00,58.6,46.9,30.27,NE,44,7.0,13.0,65,0.00,,,0.00,Wunderground v.1.13,2013-11-14 00:17:00,
2013-11-13 19:22:00,58.4,46.7,30.28,NE,46,7.0,11.0,65,0.00,,,0.00,Wunderground v.1.13,2013-11-14 00:22:00,
2013-11-13 19:27:00,58.4,46.7,30.28,NE,45,5.0,18.0,65,0.00,,,0.00,Wunderground v.1.13,2013-11-14 00:27:00,
2013-11-13 19:32:00,58.3,46.6,30.28,NE,45,10.0,16.0,65,0.00,,,0.00,Wunderground v.1.13,2013-11-14 00:32:00,
2013-11-13 19:37:00,58.2,46.9,30.28,East,82,2.0,11.0,66,0.00,,,0.00,Wunderground v.1.13,2013-11-14 00:37:00,
2013-11-13 19:43:00,57.9,46.6,30.28,NE,46,4.0,15.0,66,0.00,,,0.00,Wunderground v.1.13,2013-11-14 00:43:00,
2013-11-13 19:48:00,57.8,46.5,30.28,NE,37,9.0,15.0,66,0.00,,,0.00,Wunderground v.1.13,2013-11-14 00:48:00,
2013-11-13 19:53:00,57.7,46.8,30.28,North,11,15.0,15.0,67,0.00,,,0.00,Wunderground v.1.13,2013-11-14 00:53:00,
2013-11-13 19:58:00,57.6,46.7,30.29,NNE,32,6.0,15.0,67,0.00,,,0.00,Wunderground v.1.13,2013-11-14 00:58:00,
2013-11-13 20:03:00,57.4,46.5,30.29,ENE,73,2.0,10.0,67,0.00,,,0.00,Wunderground v.1.13,2013-11-14 01:03:00,
2013-11-13 20:08:00,57.3,46.8,30.29,NNE,30,2.0,18.0,68,0.00,,,0.00,Wunderground v.1.13,2013-11-14 01:08:00,
2013-11-13 20:13:00,57.3,46.8,30.29,NE,38,8.0,16.0,68,0.00,,,0.00,Wunderground v.1.13,2013-11-14 01:13:00,
2013-11-13 20:18:00,57.2,46.7,30.29,NNE,13,11.0,16.0,68,0.00,,,0.00,Wunderground v.1.13,2013-11-14 01:18:00,
2013-11-13 20:23:00,57.1,46.6,30.30,NE,52,7.0,13.0,68,0.00,,,0.00,Wunderground v.1.13,2013-11-14 01:23:00,
2013-11-13 20:28:00,57.1,46.6,30.30,NNE,31,0.0,14.0,68,0.00,,,0.00,Wunderground v.1.13,2013-11-14 01:28:00,
2013-11-13 20:33:00,57.0,46.9,30.30,NNE,17,6.0,13.0,69,0.00,,,0.00,Wunderground v.1.13,2013-11-14 01:33:00,
2013-11-13 20:38:00,57.0,46.9,30.30,NNE,12,6.0,15.0,69,0.00,,,0.00,Wunderground v.1.13,2013-11-14 01:38:00,
2013-11-13 20:43:00,56.9,46.8,30.30,North,5,6.0,19.0,69,0.00,,,0.00,Wunderground v.1.13,2013-11-14 01:43:00,
2013-11-13 20:48:00,56.9,46.8,30.30,NNE,29,14.0,24.0,69,0.00,,,0.00,Wunderground v.1.13,2013-11-14 01:48:00,
2013-11-13 20:53:00,56.9,46.8,30.29,NE,38,4.0,17.0,69,0.00,,,0.00,Wunderground v.1.13,2013-11-14 01:53:00,
2013-11-13 20:58:00,56.8,46.7,30.30,NE,42,0.0,18.0,69,0.00,,,0.00,Wunderground v.1.13,2013-11-14 01:58:00,
2013-11-13 21:03:00,56.7,46.6,30.30,NE,38,7.0,19.0,69,0.00,,,0.00,Wunderground v.1.13,2013-11-14 02:03:00,
2013-11-13 21:08:00,56.6,46.5,30.30,NNE,32,5.0,11.0,69,0.00,,,0.00,Wunderground v.1.13,2013-11-14 02:08:00,
2013-11-13 21:14:00,56.6,46.9,30.29,ENE,64,2.0,15.0,70,0.00,,,0.00,Wunderground v.1.13,2013-11-14 02:14:00,
2013-11-13 21:19:00,56.6,46.9,30.29,NNE,24,14.0,20.0,70,0.00,,,0.00,Wunderground v.1.13,2013-11-14 02:19:00,
2013-11-13 21:24:00,56.6,46.5,30.30,NE,38,3.0,15.0,69,0.00,,,0.00,Wunderground v.1.13,2013-11-14 02:24:00,
2013-11-13 21:29:00,56.6,46.9,30.30,NNE,18,13.0,17.0,70,0.00,,,0.00,Wunderground v.1.13,2013-11-14 02:29:00,
2013-11-13 21:34:00,56.5,46.8,30.30,NE,34,4.0,19.0,70,0.00,,,0.00,Wunderground v.1.13,2013-11-14 02:34:00,
2013-11-13 21:39:00,56.4,46.7,30.30,NNE,33,0.0,15.0,70,0.00,,,0.00,Wunderground v.1.13,2013-11-14 02:39:00,
2013-11-13 21:44:00,56.3,47.0,30.30,NE,37,6.0,15.0,71,0.00,,,0.00,Wunderground v.1.13,2013-11-14 02:44:00,
2013-11-13 21:49:00,56.4,47.1,30.29,NE,39,8.0,18.0,71,0.00,,,0.00,Wunderground v.1.13,2013-11-14 02:49:00,
2013-11-13 21:54:00,56.4,47.1,30.30,NE,36,3.0,11.0,71,0.00,,,0.00,Wunderground v.1.13,2013-11-14 02:54:00,
2013-11-13 21:59:00,56.2,46.9,30.30,NNE,29,9.0,12.0,71,0.00,,,0.00,Wunderground v.1.13,2013-11-14 02:59:00,
2013-11-13 22:04:00,56.0,46.7,30.30,NE,47,6.0,13.0,71,0.00,,,0.00,Wunderground v.1.13,2013-11-14 03:04:00,
2013-11-13 22:09:00,56.0,46.7,30.29,NNE,30,9.0,15.0,71,0.00,,,0.00,Wunderground v.1.13,2013-11-14 03:09:00,
2013-11-13 22:14:00,56.0,46.7,30.30,ENE,57,5.0,14.0,71,0.00,,,0.00,Wunderground v.1.13,2013-11-14 03:14:00,
2013-11-13 22:19:00,55.9,47.0,30.30,NE,51,3.0,10.0,72,0.00,,,0.00,Wunderground v.1.13,2013-11-14 03:19:00,
2013-11-13 22:24:00,55.8,46.9,30.29,NNE,25,6.0,19.0,72,0.00,,,0.00,Wunderground v.1.13,2013-11-14 03:24:00,
2013-11-13 22:29:00,55.8,46.9,30.29,NE,46,5.0,13.0,72,0.00,,,0.00,Wunderground v.1.13,2013-11-14 03:29:00,
2013-11-13 22:35:00,55.7,46.8,30.29,NE,41,2.0,14.0,72,0.00,,,0.00,Wunderground v.1.13,2013-11-14 03:35:00,
2013-11-13 22:40:00,55.7,46.8,30.29,North,355,11.0,14.0,72,0.00,,,0.00,Wunderground v.1.13,2013-11-14 03:40:00,
2013-11-13 22:45:00,55.6,46.7,30.29,NE,54,13.0,19.0,72,0.00,,,0.00,Wunderground v.1.13,2013-11-14 03:45:00,
2013-11-13 22:50:00,55.6,46.7,30.29,NE,48,6.0,13.0,72,0.00,,,0.00,Wunderground v.1.13,2013-11-14 03:50:00,
2013-11-13 22:55:00,55.5,46.6,30.29,ENE,73,7.0,12.0,72,0.00,,,0.00,Wunderground v.1.13,2013-11-14 03:55:00,
2013-11-13 23:00:00,55.4,46.5,30.29,ENE,58,3.0,11.0,72,0.00,,,0.00,Wunderground v.1.13,2013-11-14 04:00:00,
2013-11-13 23:05:00,55.3,46.8,30.29,NE,53,3.0,15.0,73,0.00,,,0.00,Wunderground v.1.13,2013-11-14 04:05:00,
2013-11-13 23:10:00,55.3,46.8,30.28,NE,41,5.0,13.0,73,0.00,,,0.00,Wunderground v.1.13,2013-11-14 04:10:00,
2013-11-13 23:15:00,55.2,46.7,30.28,NNE,29,2.0,6.0,73,0.00,,,0.00,Wunderground v.1.13,2013-11-14 04:15:00,
2013-11-13 23:20:00,55.1,46.6,30.29,NE,44,13.0,14.0,73,0.00,,,0.00,Wunderground v.1.13,2013-11-14 04:20:00,
2013-11-13 23:25:00,55.0,46.5,30.29,NE,41,8.0,8.0,73,0.00,,,0.00,Wunderground v.1.13,2013-11-14 04:25:00,
2013-11-13 23:30:00,55.0,46.5,30.29,NE,45,2.0,6.0,73,0.00,,,0.00,Wunderground v.1.13,2013-11-14 04:30:00,
2013-11-13 23:35:00,54.9,46.4,30.29,North,360,0.0,5.0,73,0.00,,,0.00,Wunderground v.1.13,2013-11-14 04:35:00,
2013-11-13 23:40:00,54.8,46.3,30.29,NNE,33,0.0,5.0,73,0.00,,,0.00,Wunderground v.1.13,2013-11-14 04:40:00,
2013-11-13 23:45:00,54.8,46.7,30.28,NNE,33,7.0,7.0,74,0.00,,,0.00,Wunderground v.1.13,2013-11-14 04:45:00,
2013-11-13 23:50:00,54.8,46.7,30.28,NNE,28,0.0,6.0,74,0.00,,,0.00,Wunderground v.1.13,2013-11-14 04:50:00,
2013-11-13 23:55:00,54.8,46.7,30.28,NNE,28,0.0,5.0,74,0.00,,,0.00,Wunderground v.1.13,2013-11-14 04:55:00,